• In Österreich
  • Länderverzeichnis
  • Für 7 Tage
  • Wassertemperatur
  • Satellitenkarten
  • Wetterkarte
  • News
  • Widgets
  • user-avatar
    Anmelden

    Stündliche Wetter Bardy

    Heute, 23 Oktober, Dienstag

    Zeit Temperatur Niederschläge Wind Luftdruck Luftfeuchtigkeit
    00:00 +5°C° 0 mm 7 m/S 763 mmHg 79%
    01:00 +5°C° 0 mm 8 m/S 762 mmHg 80%
    02:00 +5°C° 0.5 mm 9 m/S 760 mmHg 80%
    03:00 +5°C° 0.5 mm 9 m/S 759 mmHg 80%
    04:00 +5°C° 0.5 mm 10 m/S 758 mmHg 79%
    05:00 +4°C° 1.5 mm 11 m/S 756 mmHg 81%
    06:00 +4°C° 1.5 mm 12 m/S 755 mmHg 82%
    07:00 +3°C° 0 mm 13 m/S 753 mmHg 83%
    08:00 +4°C° 1.9 mm 13 m/S 752 mmHg 84%
    09:00 +5°C° 1.9 mm 13 m/S 750 mmHg 85%
    10:00 +7°C° 1.9 mm 13 m/S 749 mmHg 86%
    11:00 +8°C° 1.7 mm 13 m/S 748 mmHg 86%
    12:00 +8°C° 1.7 mm 13 m/S 747 mmHg 86%
    13:00 +9°C° 1.7 mm 13 m/S 746 mmHg 86%
    14:00 +9°C° 0.8 mm 13 m/S 746 mmHg 83%
    15:00 +9°C° 0.8 mm 13 m/S 745 mmHg 81%
    16:00 +10°C° 0.8 mm 13 m/S 745 mmHg 78%
    17:00 +9°C° 0.4 mm 13 m/S 745 mmHg 77%
    18:00 +9°C° 0.4 mm 13 m/S 745 mmHg 75%
    19:00 +9°C° 0.4 mm 13 m/S 745 mmHg 74%
    20:00 +8°C° 0.2 mm 13 m/S 745 mmHg 71%
    21:00 +8°C° 0.2 mm 13 m/S 745 mmHg 69%
    22:00 +8°C° 0.2 mm 13 m/S 745 mmHg 67%
    23:00 +7°C° 0.1 mm 13 m/S 746 mmHg 65%

    Morgen, 24 Oktober, Mittwoch

    Zeit Temperatur Niederschläge Wind Luftdruck Luftfeuchtigkeit
    00:00 +7°C° 0.1 mm 12 m/S 746 mmHg 63%
    01:00 +5°C° 0.1 mm 12 m/S 746 mmHg 62%
    02:00 +5°C° 0.2 mm 12 m/S 747 mmHg 61%
    03:00 +6°C° 0.2 mm 11 m/S 747 mmHg 61%
    04:00 +6°C° 0.2 mm 11 m/S 748 mmHg 61%
    05:00 +4°C° 0 mm 11 m/S 748 mmHg 58%
    06:00 +4°C° 0 mm 11 m/S 749 mmHg 56%
    07:00 +4°C° 0 mm 11 m/S 750 mmHg 54%
    08:00 +4°C° 0 mm 11 m/S 751 mmHg 51%
    09:00 +6°C° 0 mm 11 m/S 751 mmHg 49%
    10:00 +7°C° 0 mm 12 m/S 752 mmHg 46%
    11:00 +7°C° 0 mm 11 m/S 753 mmHg 46%
    12:00 +7°C° 0 mm 11 m/S 753 mmHg 46%
    13:00 +7°C° 0 mm 11 m/S 754 mmHg 45%
    14:00 +7°C° 0 mm 10 m/S 754 mmHg 48%
    15:00 +7°C° 0 mm 9 m/S 755 mmHg 50%
    16:00 +6°C° 0 mm 9 m/S 755 mmHg 52%
    17:00 +6°C° 0 mm 8 m/S 755 mmHg 54%
    18:00 +6°C° 0 mm 8 m/S 756 mmHg 57%
    19:00 +5°C° 0 mm 7 m/S 756 mmHg 59%
    20:00 +5°C° 0 mm 7 m/S 756 mmHg 62%
    21:00 +5°C° 0 mm 6 m/S 756 mmHg 65%
    22:00 +5°C° 0 mm 6 m/S 756 mmHg 67%
    23:00 +5°C° 0 mm 6 m/S 755 mmHg 71%

    übermorgen, 25 Oktober, Donnerstag

    Zeit Temperatur Niederschläge Wind Luftdruck Luftfeuchtigkeit
    00:00 +5°C° 0 mm 6 m/S 755 mmHg 74%
    01:00 +5°C° 0 mm 6 m/S 754 mmHg 77%
    02:00 +5°C° 0.8 mm 6 m/S 753 mmHg 82%
    03:00 +5°C° 0.8 mm 7 m/S 752 mmHg 86%
    04:00 +6°C° 0.8 mm 7 m/S 751 mmHg 91%
    05:00 +7°C° 0.8 mm 8 m/S 750 mmHg 90%
    06:00 +8°C° 0.8 mm 10 m/S 750 mmHg 89%
    07:00 +11°C° 0.8 mm 11 m/S 749 mmHg 88%
    08:00 +11°C° 0.4 mm 11 m/S 749 mmHg 85%
    09:00 +10°C° 0.4 mm 12 m/S 749 mmHg 83%
    10:00 +10°C° 0.4 mm 12 m/S 749 mmHg 80%
    11:00 +10°C° 0.1 mm 12 m/S 749 mmHg 77%
    12:00 +9°C° 0.1 mm 12 m/S 749 mmHg 75%
    13:00 +9°C° 0.1 mm 11 m/S 749 mmHg 72%
    14:00 +9°C° 0.1 mm 11 m/S 749 mmHg 72%
    15:00 +8°C° 0.1 mm 11 m/S 749 mmHg 72%
    16:00 +8°C° 0.1 mm 10 m/S 749 mmHg 71%
    17:00 +8°C° 0 mm 10 m/S 750 mmHg 72%
    18:00 +8°C° 0 mm 9 m/S 750 mmHg 73%
    19:00 +7°C° 0 mm 9 m/S 750 mmHg 74%
    20:00 +7°C° 0 mm 9 m/S 751 mmHg 75%
    21:00 +7°C° 0 mm 8 m/S 751 mmHg 76%
    22:00 +7°C° 0 mm 8 m/S 751 mmHg 77%
    23:00 +8°C° 0.1 mm 7 m/S 751 mmHg 78%

    26 Oktober, Freitag

    Zeit Temperatur Niederschläge Wind Luftdruck Luftfeuchtigkeit
    00:00 +8°C° 0.1 mm 7 m/S 751 mmHg 78%
    01:00 +8°C° 0.1 mm 7 m/S 751 mmHg 78%
    02:00 +8°C° 0.1 mm 7 m/S 751 mmHg 79%
    03:00 +7°C° 0.1 mm 6 m/S 751 mmHg 79%
    04:00 +7°C° 0.1 mm 6 m/S 750 mmHg 79%
    05:00 +7°C° 0.1 mm 6 m/S 750 mmHg 82%
    06:00 +5°C° 0.1 mm 6 m/S 750 mmHg 84%
    07:00 +5°C° 0.1 mm 6 m/S 749 mmHg 87%
    08:00 +7°C° 0.1 mm 6 m/S 749 mmHg 85%
    09:00 +8°C° 0.1 mm 6 m/S 748 mmHg 83%
    10:00 +8°C° 0.1 mm 7 m/S 748 mmHg 82%
    11:00 +9°C° 0.6 mm 7 m/S 747 mmHg 83%
    12:00 +9°C° 0.6 mm 8 m/S 746 mmHg 84%
    13:00 +10°C° 0.6 mm 9 m/S 746 mmHg 85%
    14:00 +8°C° 0.2 mm 9 m/S 745 mmHg 83%
    15:00 +8°C° 0.2 mm 9 m/S 744 mmHg 81%
    16:00 +8°C° 0.2 mm 10 m/S 744 mmHg 79%
    17:00 +8°C° 0.6 mm 10 m/S 743 mmHg 79%
    18:00 +8°C° 0.6 mm 10 m/S 743 mmHg 80%
    19:00 +7°C° 0.6 mm 10 m/S 743 mmHg 81%
    20:00 +7°C° 0.5 mm 10 m/S 743 mmHg 80%
    21:00 +6°C° 0.5 mm 11 m/S 743 mmHg 79%
    22:00 +4°C° 0.5 mm 11 m/S 743 mmHg 78%
    23:00 +4°C° 0.3 mm 11 m/S 743 mmHg 77%

    27 Oktober, Samstag

    Zeit Temperatur Niederschläge Wind Luftdruck Luftfeuchtigkeit
    00:00 +4°C° 0.3 mm 11 m/S 743 mmHg 76%
    01:00 +4°C° 0.3 mm 11 m/S 743 mmHg 75%
    02:00 +4°C° 0.2 mm 11 m/S 744 mmHg 75%
    03:00 +4°C° 0.2 mm 11 m/S 744 mmHg 75%
    04:00 +3°C° 0.2 mm 11 m/S 744 mmHg 75%
    05:00 +3°C° 0.2 mm 10 m/S 745 mmHg 75%
    06:00 +3°C° 0.2 mm 9 m/S 746 mmHg 75%
    07:00 +4°C° 0.2 mm 8 m/S 747 mmHg 75%
    08:00 +4°C° 0.1 mm 8 m/S 748 mmHg 73%
    09:00 +5°C° 0.1 mm 7 m/S 749 mmHg 70%
    10:00 +5°C° 0.1 mm 7 m/S 750 mmHg 67%
    11:00 +5°C° 0 mm 6 m/S 750 mmHg 66%
    12:00 +6°C° 0 mm 5 m/S 750 mmHg 64%
    13:00 +7°C° 0 mm 5 m/S 751 mmHg 63%
    14:00 +6°C° 0 mm 4 m/S 751 mmHg 64%
    15:00 +6°C° 0 mm 4 m/S 752 mmHg 66%
    16:00 +5°C° 0 mm 3 m/S 752 mmHg 67%
    17:00 +5°C° 0 mm 3 m/S 753 mmHg 69%
    18:00 +5°C° 0 mm 2 m/S 754 mmHg 70%
    19:00 +5°C° 0 mm 2 m/S 754 mmHg 72%
    20:00 +4°C° 0 mm 2 m/S 755 mmHg 72%
    21:00 +5°C° 0 mm 1 m/S 755 mmHg 71%
    22:00 +5°C° 0 mm 1 m/S 755 mmHg 71%
    23:00 +5°C° 0 mm 1 m/S 756 mmHg 71%

    28 Oktober, Sonntag

    Zeit Temperatur Niederschläge Wind Luftdruck Luftfeuchtigkeit
    00:00 +5°C° 0 mm 1 m/S 756 mmHg 71%
    01:00 +4°C° 0 mm 2 m/S 756 mmHg 71%
    02:00 +4°C° 0 mm 2 m/S 756 mmHg 71%
    03:00 +3°C° 0 mm 2 m/S 757 mmHg 71%
    04:00 +3°C° 0 mm 2 m/S 757 mmHg 71%
    05:00 +2°C° 0 mm 3 m/S 757 mmHg 73%
    06:00 +3°C° 0 mm 3 m/S 758 mmHg 74%
    07:00 +3°C° 0 mm 3 m/S 758 mmHg 75%
    08:00 +3°C° 0 mm 3 m/S 758 mmHg 71%
    09:00 +4°C° 0 mm 4 m/S 759 mmHg 68%
    10:00 +5°C° 0 mm 4 m/S 759 mmHg 64%
    11:00 +5°C° 0 mm 4 m/S 759 mmHg 61%
    12:00 +6°C° 0 mm 4 m/S 759 mmHg 58%
    13:00 +6°C° 0 mm 4 m/S 759 mmHg 55%
    14:00 +6°C° 0 mm 5 m/S 759 mmHg 57%
    15:00 +5°C° 0 mm 5 m/S 759 mmHg 59%
    16:00 +5°C° 0 mm 5 m/S 759 mmHg 61%
    17:00 +3°C° 0 mm 5 m/S 759 mmHg 63%
    18:00 +3°C° 0 mm 5 m/S 759 mmHg 65%
    19:00 +3°C° 0 mm 5 m/S 760 mmHg 67%
    20:00 +3°C° 0 mm 5 m/S 760 mmHg 67%
    21:00 +3°C° 0 mm 6 m/S 759 mmHg 66%
    22:00 +3°C° 0 mm 6 m/S 759 mmHg 66%
    23:00 +3°C° 0 mm 6 m/S 759 mmHg 66%

    29 Oktober, Montag

    Zeit Temperatur Niederschläge Wind Luftdruck Luftfeuchtigkeit
    00:00 +3°C° 0 mm 6 m/S 759 mmHg 67%
    01:00 +3°C° 0 mm 7 m/S 759 mmHg 68%
    02:00 +3°C° 0 mm 7 m/S 758 mmHg 68%
    03:00 +3°C° 0 mm 7 m/S 758 mmHg 68%
    04:00 +2°C° 0 mm 8 m/S 758 mmHg 68%
    05:00 +2°C° 0 mm 8 m/S 758 mmHg 65%
    06:00 +2°C° 0 mm 9 m/S 758 mmHg 61%
    07:00 +2°C° 0 mm 9 m/S 757 mmHg 58%
    08:00 +2°C° 0 mm 10 m/S 757 mmHg 55%
    09:00 +3°C° 0 mm 11 m/S 757 mmHg 53%
    10:00 +3°C° 0 mm 11 m/S 757 mmHg 51%
    11:00 +3°C° 0 mm 12 m/S 757 mmHg 52%
    12:00 +3°C° 0 mm 12 m/S 756 mmHg 52%
    13:00 +3°C° 0 mm 12 m/S 756 mmHg 53%
    14:00 +3°C° 0 mm 12 m/S 755 mmHg 56%
    15:00 +2°C° 0 mm 12 m/S 755 mmHg 60%
    16:00 +2°C° 0 mm 11 m/S 754 mmHg 63%
    17:00 +2°C° 0.2 mm 11 m/S 754 mmHg 67%
    18:00 +2°C° 0.2 mm 11 m/S 754 mmHg 71%
    19:00 +2°C° 0.2 mm 11 m/S 753 mmHg 75%
    20:00 +2°C° 0.4 mm 11 m/S 753 mmHg 76%
    21:00 +2°C° 0.4 mm 11 m/S 753 mmHg 77%
    22:00 +2°C° 0.4 mm 11 m/S 753 mmHg 79%
    23:00 +2°C° 0.1 mm 11 m/S 752 mmHg 79%
    Mehr zeigen